Regional Weather Roundup
Issued by NWS Mt. Holly, NJ

Home | Current Version | Previous Version | Text Only | Print | Product List | Glossary On
Versions: 1 2 3 4 5 6 7 8 9 10 11 12 13 14 15 16 17 18 19 20 21 22 23 24 25 26 27 28
000
ASUS41 KPHI 180312
RWRPHI

REGIONAL WEATHER ROUNDUP
NATIONAL WEATHER SERVICE MOUNT HOLLY NJ
1000 PM EST SUN DEC 17 2017

NOTE:  "FAIR" INDICATES FEW OR NO CLOUDS BELOW 12,000 FEET WITH NO
SIGNIFICANT WEATHER AND/OR OBSTRUCTIONS TO VISIBILITY.

 * = STATION DOES NOT REPORT PRECIPITATION (E.G. RAIN, SNOW, ETC.)
        OR FOG.

NJZ015>026-180400-
SOUTHERN NEW JERSEY

CITY           SKY/WX    TMP DP  RH WIND       PRES   REMARKS
POMONA         CLOUDY    39  36  89 NE6       30.20F WCI  35
WILDWOOD*      CLOUDY    42  40  92 E3        30.19F
MILLVILLE      CLOUDY    39  34  82 NE3       30.19F
WRIGHTSTOWN    CLOUDY    34  31  88 CALM      30.18F
MOUNT HOLLY    CLOUDY    35  31  85 CALM      30.22F
TRENTON        CLOUDY    35  30  82 NE3       30.21F

$$
NJZ001>014-180400-
NORTHERN NEW JERSEY

CITY           SKY/WX    TMP DP  RH WIND       PRES   REMARKS
SUSSEX         CLOUDY    29  21  72 NE5       30.21F WCI  24
ANDOVER*         N/A     31  24  75 CALM      30.20F
MORRISTOWN     CLOUDY    32  25  74 NE3       30.24S
NEWARK         CLOUDY    37  28  70 E5        30.23F WCI  33
TETERBORO      CLOUDY    36  26  67 CALM      30.23F
CALDWELL       CLOUDY    33  25  72 VRB3      30.24F
SOMERVILLE     MOCLDY    32  29  88 N3        30.21F
ALLAIRE*       CLOUDY    40  36  86 E5        30.23S
TOMS RIVER*    CLOUDY    32  30  92 CALM      30.21F

$$
PAZ043-044-047-054-055-060>062-066>071-180400-
EASTERN PENNSYLVANIA

CITY           SKY/WX    TMP DP  RH WIND       PRES   REMARKS
PHILADELPHIA   CLOUDY    39  31  72 NE8       30.21F WCI  33
NORTH PHILA    CLOUDY    37  30  75 NE7       30.23F WCI  32
BLUE BELL*     CLOUDY    34  30  86 CALM      30.22F
DOYLESTOWN     CLOUDY    34  27  75 CALM      30.20F
QUAKERTOWN*    CLOUDY    34  27  75 CALM      30.20F
PERKASIE*      CLOUDY    32  27  80 E6        30.20F WCI  26
POTTSTOWN      CLOUDY    34  26  72 CALM      30.21F
LANCASTER      CLOUDY    36  31  82 E5        30.18F WCI  32
COATESVILLE    MOCLDY    36  30  80 CALM      30.19F
READING        CLOUDY    35  30  82 CALM      30.18F
ALLENTOWN      CLOUDY    33  26  75 NE5       30.20F WCI  29
MOUNT POCONO   CLOUDY    27  23  85 E3        30.12F
HAZLETON       CLOUDY    32  27  80 SE6       30.15F WCI  26
LEHIGHTON      CLOUDY    32  28  86 CALM      30.20S
WILKES BARRE   CLOUDY    30  25  81 CALM      30.15F

$$
DEZALL-MDZ008-012-015-019-020-180400-
DELAWARE AND EASTERN MARYLAND

CITY           SKY/WX    TMP DP  RH WIND       PRES   REMARKS
WILMINGTON     CLOUDY    40  31  70 NE9       30.20F WCI  34
DOVER          CLOUDY    39  39 100 E5        30.17F
GEORGETOWN     CLOUDY    43  37  79 SE5       30.17F
ABERDEEN       CLOUDY   N/A N/A N/A NE5       30.20S
PATUXENT       CLOUDY    43  40  89 CALM      30.17F
OCEAN CITY     CLOUDY    42  41  96 CALM      30.19F
WALLOPS ISLAND CLOUDY    43  42  97 CALM      30.18F
CAMBRIDGE      CLOUDY    41  37  87 CALM      30.17F
SALISBURY      CLOUDY    42  41  96 S3        30.17F

$$
PAZ001-021-NYZ056-072-MDZ011-DCZ001-180400-
OTHER NEARBY LOCATIONS

CITY           SKY/WX    TMP DP  RH WIND       PRES   REMARKS
HARRISBURG     CLOUDY    36  30  79 CALM      30.16F
STATE COLLEGE  DRIZZLE   32  28  86 CALM      30.12F
WILLIAMSPORT   CLOUDY    35  27  72 E3        30.15F
BINGHAMTON     CLOUDY    23  19  85 SE6       30.09F WCI  16
NEW YORK CITY  CLOUDY    36  26  67 E6        30.25F WCI  31
BALTIMORE      LGT RAIN  41  35  79 NE6       30.16F
WASHINGTON DC  CLOUDY    45  34  65 S6        30.17F

$$




USA.gov is the U.S. government's official web portal to all federal, state and local government web resources and services.